| time (UTC) | temp C | wind direction | speed KPH | gust KPH | rain 1hr cm | rain 24hr cm | rain mn cm | humidity % | barometer mb |
| 20260906205509 | 38 | 155 | 4.8 | 17.7 | 0.00 | 0.00 | 0.00 | 32 | 1012.2 |
| 20260906205010 | 37 | 100 | 6.4 | 17.7 | 0.00 | 0.00 | 0.00 | 32 | 1012.3 |
| 20260906204519 | 37 | 55 | 4.8 | 12.9 | 0.00 | 0.00 | 0.00 | 32 | 1012.4 |
| 20260906204010 | 37 | 57 | 4.8 | 12.9 | 0.00 | 0.00 | 0.00 | 33 | 1012.5 |
| 20260906203514 | 37 | 84 | 6.4 | 12.9 | 0.00 | 0.00 | 0.00 | 34 | 1012.7 |
| 20260906203028 | 37 | 60 | 3.2 | 17.7 | 0.00 | 0.00 | 0.00 | 34 | 1012.8 |
| 20260906202516 | 37 | 78 | 6.4 | 17.7 | 0.00 | 0.00 | 0.00 | 34 | 1012.7 |
| 20260906202014 | 37 | 154 | 3.2 | 12.9 | 0.00 | 0.00 | 0.00 | 34 | 1012.7 |
| 20260906201528 | 37 | 250 | 4.8 | 12.9 | 0.00 | 0.00 | 0.00 | 34 | 1012.7 |
| 20260906201020 | 37 | 69 | 4.8 | 16.1 | 0.00 | 0.00 | 0.00 | 34 | 1012.9 |
| 20260906200515 | 37 | 202 | 6.4 | 16.1 | 0.00 | 0.00 | 0.00 | 35 | 1012.9 |
| 20260906200032 | 37 | 208 | 6.4 | 12.9 | 0.00 | 0.00 | 0.00 | 34 | 1013.0 |
| 20260906195507 | 37 | 156 | 4.8 | 14.5 | 0.00 | 0.00 | 0.00 | 34 | 1013.1 |
| 20260906195015 | 37 | 127 | 6.4 | 14.5 | 0.00 | 0.00 | 0.00 | 34 | 1013.3 |
| 20260906194518 | 37 | 163 | 4.8 | 14.5 | 0.00 | 0.00 | 0.00 | 35 | 1013.3 |
| 20260906194019 | 37 | 126 | 6.4 | 14.5 | 0.00 | 0.00 | 0.00 | 35 | 1013.4 |
| 20260906193512 | 37 | 64 | 9.7 | 14.5 | 0.00 | 0.00 | 0.00 | 35 | 1013.4 |
| 20260906193018 | 37 | 106 | 4.8 | 14.5 | 0.00 | 0.00 | 0.00 | 37 | 1013.5 |
| 20260906192514 | 37 | 137 | 1.6 | 14.5 | 0.00 | 0.00 | 0.00 | 36 | 1013.5 |
| 20260906192014 | 37 | 181 | 6.4 | 14.5 | 0.00 | 0.00 | 0.00 | 34 | 1013.6 |
| 20260906191536 | 37 | 194 | 4.8 | 19.3 | 0.00 | 0.00 | 0.00 | 34 | 1013.6 |
| 20260906191013 | 37 | 204 | 4.8 | 19.3 | 0.00 | 0.00 | 0.00 | 36 | 1013.6 |
| 20260906190516 | 37 | 122 | 8.0 | 20.9 | 0.00 | 0.00 | 0.00 | 37 | 1013.7 |
| 20260906190039 | 36 | 39 | 6.4 | 20.9 | 0.00 | 0.00 | 0.00 | 37 | 1013.8 |
| 20260906185517 | 36 | 61 | 6.4 | 17.7 | 0.00 | 0.00 | 0.00 | 38 | 1013.9 |
| 20260906185019 | 36 | 142 | 3.2 | 17.7 | 0.00 | 0.00 | 0.00 | 39 | 1014.0 |
| 20260906184536 | 35 | 22 | 4.8 | 14.5 | 0.00 | 0.00 | 0.00 | 40 | 1014.0 |
| 20260906184018 | 35 | 83 | 1.6 | 14.5 | 0.00 | 0.00 | 0.00 | 39 | 1014.1 |
| 20260906183511 | 35 | 66 | 4.8 | 14.5 | 0.00 | 0.00 | 0.00 | 40 | 1014.2 |
| 20260906183019 | 36 | 138 | 4.8 | 11.3 | 0.00 | 0.00 | 0.00 | 39 | 1014.2 |
| 20260906182512 | 35 | 157 | 1.6 | 9.7 | 0.00 | 0.00 | 0.00 | 41 | 1014.3 |
| 20260906182014 | 35 | 78 | 3.2 | 11.3 | 0.00 | 0.00 | 0.00 | 39 | 1014.4 |
| 20260906181533 | 36 | 85 | 1.6 | 11.3 | 0.00 | 0.00 | 0.00 | 39 | 1014.4 |
| 20260906181013 | 36 | 127 | 1.6 | 11.3 | 0.00 | 0.00 | 0.00 | 40 | 1014.5 |
| 20260906180516 | 36 | 153 | 1.6 | 14.5 | 0.00 | 0.00 | 0.00 | 40 | 1014.6 |
| 20260906180027 | 36 | 123 | 1.6 | 14.5 | 0.00 | 0.00 | 0.00 | 39 | 1014.6 |
| 20260906175515 | 36 | 59 | 3.2 | 16.1 | 0.00 | 0.00 | 0.00 | 39 | 1014.6 |
| 20260906175018 | 36 | 80 | 3.2 | 14.5 | 0.00 | 0.00 | 0.00 | 39 | 1014.8 |
| 20260906174529 | 36 | 138 | 3.2 | 14.5 | 0.00 | 0.00 | 0.00 | 39 | 1014.9 |
| 20260906174015 | 36 | 101 | 3.2 | 11.3 | 0.00 | 0.00 | 0.00 | 40 | 1015.0 |
| 20260906173519 | 36 | 117 | 4.8 | 11.3 | 0.00 | 0.00 | 0.00 | 40 | 1015.1 |
| 20260906173043 | 36 | 189 | 6.4 | 11.3 | 0.00 | 0.00 | 0.00 | 40 | 1015.2 |
| 20260906172518 | 36 | 115 | 3.2 | 9.7 | 0.00 | 0.00 | 0.00 | 40 | 1015.2 |
| 20260906172010 | 36 | 180 | 4.8 | 11.3 | 0.00 | 0.00 | 0.00 | 40 | 1015.3 |
| 20260906171520 | 35 | 157 | 4.8 | 11.3 | 0.00 | 0.00 | 0.00 | 42 | 1015.3 |
| 20260906171016 | 35 | 129 | 3.2 | 9.7 | 0.00 | 0.00 | 0.00 | 42 | 1015.5 |
| 20260906170511 | 35 | 123 | 3.2 | 11.3 | 0.00 | 0.00 | 0.00 | 41 | 1015.5 |
| 20260906170026 | 35 | 210 | 4.8 | 11.3 | 0.00 | 0.00 | 0.00 | 41 | 1015.7 |
| 20260906165514 | 35 | 117 | 1.6 | 16.1 | 0.00 | 0.00 | 0.00 | 42 | 1015.7 |
| 20260906165003 | 35 | 101 | 4.8 | 16.1 | 0.00 | 0.00 | 0.00 | 43 | 1015.8 |
| 20260906164505 | 35 | 194 | 6.4 | 11.3 | 0.00 | 0.00 | 0.00 | 42 | 1015.8 |
| 20260906164003 | 35 | 198 | 3.2 | 9.7 | 0.00 | 0.00 | 0.00 | 42 | 1015.9 |
| 20260906163506 | 35 | 188 | 3.2 | 9.7 | 0.00 | 0.00 | 0.00 | 43 | 1015.9 |
| 20260906163032 | 35 | 257 | 1.6 | 9.7 | 0.00 | 0.00 | 0.00 | 43 | 1015.9 |
| 20260906162507 | 34 | 194 | 1.6 | 9.7 | 0.00 | 0.00 | 0.00 | 44 | 1016.0 |
| 20260906162008 | 33 | 139 | 3.2 | 9.7 | 0.00 | 0.00 | 0.00 | 44 | 1015.9 |
| 20260906161508 | 33 | 176 | 1.6 | 11.3 | 0.00 | 0.00 | 0.00 | 46 | 1015.8 |
| 20260906161002 | 33 | 317 | 1.6 | 11.3 | 0.00 | 0.00 | 0.00 | 47 | 1015.9 |
| 20260906160502 | 33 | 244 | 3.2 | 11.3 | 0.00 | 0.00 | 0.00 | 47 | 1015.8 |
| 20260906160011 | 33 | 248 | 4.8 | 9.7 | 0.00 | 0.00 | 0.00 | 47 | 1015.7 |
| 20260906155503 | 32 | 238 | 1.6 | 8.0 | 0.00 | 0.00 | 0.00 | 48 | 1015.8 |
| 20260906155003 | 32 | 227 | 1.6 | 9.7 | 0.00 | 0.00 | 0.00 | 50 | 1015.8 |
| 20260906154506 | 32 | 247 | 3.2 | 9.7 | 0.00 | 0.00 | 0.00 | 50 | 1015.8 |
| 20260906154004 | 32 | 207 | 1.6 | 8.0 | 0.00 | 0.00 | 0.00 | 51 | 1015.8 |
| 20260906153511 | 32 | 207 | 3.2 | 8.0 | 0.00 | 0.00 | 0.00 | 53 | 1015.8 |
| 20260906153009 | 31 | 207 | 1.6 | 6.4 | 0.00 | 0.00 | 0.00 | 52 | 1015.7 |
| 20260906152509 | 31 | 198 | 3.2 | 8.0 | 0.00 | 0.00 | 0.00 | 53 | 1015.7 |
| 20260906152008 | 31 | 197 | 4.8 | 8.0 | 0.00 | 0.00 | 0.00 | 52 | 1015.6 |
| 20260906151534 | 31 | 229 | 3.2 | 9.7 | 0.00 | 0.00 | 0.00 | 53 | 1015.6 |
| 20260906151008 | 31 | 217 | 4.8 | 12.9 | 0.00 | 0.00 | 0.00 | 53 | 1015.5 |
| 20260906150511 | 31 | 233 | 6.4 | 11.3 | 0.00 | 0.00 | 0.00 | 53 | 1015.5 |
| 20260906150023 | 31 | 250 | 4.8 | 11.3 | 0.00 | 0.00 | 0.00 | 54 | 1015.4 |
| 20260906145511 | 30 | 216 | 6.4 | 11.3 | 0.00 | 0.00 | 0.00 | 55 | 1015.5 |
| 20260906145004 | 30 | 198 | 4.8 | 11.3 | 0.00 | 0.00 | 0.00 | 55 | 1015.4 |
| 20260906144506 | 30 | 194 | 3.2 | 11.3 | 0.00 | 0.00 | 0.00 | 56 | 1015.5 |
| 20260906144006 | 30 | 221 | 6.4 | 11.3 | 0.00 | 0.00 | 0.00 | 56 | 1015.4 |
| 20260906143517 | 30 | 205 | 6.4 | 12.9 | 0.00 | 0.00 | 0.00 | 56 | 1015.5 |
| 20260906143006 | 30 | 254 | 4.8 | 12.9 | 0.00 | 0.00 | 0.00 | 57 | 1015.4 |
| 20260906142509 | 29 | 200 | 4.8 | 11.3 | 0.00 | 0.00 | 0.00 | 58 | 1015.4 |
| 20260906142016 | 29 | 217 | 6.4 | 12.9 | 0.00 | 0.00 | 0.00 | 58 | 1015.4 |
| 20260906141509 | 29 | 205 | 6.4 | 12.9 | 0.00 | 0.00 | 0.00 | 58 | 1015.4 |
| 20260906141016 | 29 | 190 | 6.4 | 11.3 | 0.00 | 0.00 | 0.00 | 58 | 1015.4 |
| 20260906140512 | 28 | 205 | 3.2 | 9.7 | 0.00 | 0.00 | 0.00 | 59 | 1015.3 |
| 20260906140023 | 28 | 186 | 4.8 | 11.3 | 0.00 | 0.00 | 0.00 | 59 | 1015.3 |
| 20260906135518 | 28 | 217 | 6.4 | 11.3 | 0.00 | 0.00 | 0.00 | 60 | 1015.3 |
| 20260906135011 | 28 | 216 | 4.8 | 9.7 | 0.00 | 0.00 | 0.00 | 61 | 1015.3 |
| 20260906134531 | 28 | 204 | 4.8 | 11.3 | 0.00 | 0.00 | 0.00 | 61 | 1015.3 |
| 20260906134004 | 28 | 187 | 6.4 | 11.3 | 0.00 | 0.00 | 0.00 | 61 | 1015.3 |
| 20260906133518 | 27 | 207 | 4.8 | 9.7 | 0.00 | 0.00 | 0.00 | 63 | 1015.3 |
| 20260906133004 | 27 | 202 | 4.8 | 9.7 | 0.00 | 0.00 | 0.00 | 64 | 1015.3 |
| 20260906132503 | 27 | 215 | 4.8 | 9.7 | 0.00 | 0.00 | 0.00 | 65 | 1015.3 |
| 20260906132003 | 26 | 214 | 3.2 | 6.4 | 0.00 | 0.00 | 0.00 | 67 | 1015.3 |
| 20260906131509 | 26 | 209 | 1.6 | 4.8 | 0.00 | 0.00 | 0.00 | 68 | 1015.1 |
| 20260906131005 | 26 | 209 | 1.6 | 4.8 | 0.00 | 0.00 | 0.00 | 69 | 1015.1 |
| 20260906130505 | 25 | 360 | 1.6 | 3.2 | 0.00 | 0.00 | 0.00 | 70 | 1015.0 |
| 20260906130027 | 25 | 360 | 0.0 | 3.2 | 0.00 | 0.00 | 0.00 | 71 | 1014.9 |
| 20260906125519 | 25 | 360 | 0.0 | 1.6 | 0.00 | 0.00 | 0.00 | 72 | 1014.9 |
| 20260906125021 | 25 | 360 | 0.0 | 1.6 | 0.00 | 0.00 | 0.00 | 71 | 1014.8 |
| 20260906124518 | 24 | 360 | 0.0 | 1.6 | 0.00 | 0.00 | 0.00 | 71 | 1014.8 |
| 20260906124023 | 24 | 360 | 0.0 | 1.6 | 0.00 | 0.00 | 0.00 | 71 | 1014.8 |
| 20260906123514 | 24 | 360 | 0.0 | 0.0 | 0.00 | 0.00 | 0.00 | 70 | 1014.7 |
| 20260906123032 | 25 | 360 | 0.0 | 0.0 | 0.00 | 0.00 | 0.00 | 69 | 1014.7 |
| 20260906122504 | 25 | 360 | 0.0 | 0.0 | 0.00 | 0.00 | 0.00 | 69 | 1014.7 |
| 20260906122004 | 25 | 360 | 0.0 | 0.0 | 0.00 | 0.00 | 0.00 | 69 | 1014.6 |
| 20260906121506 | 25 | 360 | 0.0 | 1.6 | 0.00 | 0.00 | 0.00 | 68 | 1014.4 |
| 20260906121003 | 25 | 360 | 0.0 | 3.2 | 0.00 | 0.00 | 0.00 | 68 | 1014.4 |
| 20260906120503 | 25 | 360 | 0.0 | 3.2 | 0.00 | 0.00 | 0.00 | 68 | 1014.4 |
| 20260906120009 | 25 | 360 | 0.0 | 3.2 | 0.00 | 0.00 | 0.00 | 68 | 1014.3 |
| 20260906115507 | 25 | 360 | 1.6 | 3.2 | 0.00 | 0.00 | 0.00 | 68 | 1014.3 |
| 20260906115006 | 25 | 360 | 0.0 | 4.8 | 0.00 | 0.00 | 0.00 | 68 | 1014.2 |
| 20260906114514 | 25 | 360 | 1.6 | 4.8 | 0.00 | 0.00 | 0.00 | 68 | 1014.2 |
| 20260906114016 | 25 | 360 | 1.6 | 4.8 | 0.00 | 0.00 | 0.00 | 68 | 1014.1 |
| 20260906113518 | 25 | 360 | 1.6 | 4.8 | 0.00 | 0.00 | 0.00 | 68 | 1014.1 |
| 20260906113027 | 24 | 360 | 1.6 | 3.2 | 0.00 | 0.00 | 0.00 | 69 | 1014.1 |
| 20260906112512 | 24 | 360 | 0.0 | 1.6 | 0.00 | 0.00 | 0.00 | 69 | 1013.9 |
| 20260906112020 | 24 | 360 | 0.0 | 0.0 | 0.00 | 0.00 | 0.00 | 68 | 1013.8 |
| 20260906111533 | 25 | 360 | 0.0 | 0.0 | 0.00 | 0.00 | 0.00 | 67 | 1013.8 |
| 20260906111015 | 25 | 360 | 0.0 | 1.6 | 0.00 | 0.00 | 0.00 | 66 | 1013.7 |
| 20260906110504 | 25 | 360 | 0.0 | 1.6 | 0.00 | 0.00 | 0.00 | 65 | 1013.8 |
| 20260906110013 | 25 | 360 | 0.0 | 1.6 | 0.00 | 0.00 | 0.00 | 64 | 1013.8 |
| 20260906105509 | 26 | 360 | 0.0 | 1.6 | 0.00 | 0.00 | 0.00 | 63 | 1013.7 |
| 20260906105006 | 26 | 360 | 0.0 | 3.2 | 0.00 | 0.00 | 0.00 | 63 | 1013.6 |
| 20260906104514 | 26 | 360 | 0.0 | 3.2 | 0.00 | 0.00 | 0.00 | 63 | 1013.5 |
| 20260906104008 | 26 | 360 | 0.0 | 4.8 | 0.00 | 0.00 | 0.00 | 62 | 1013.5 |
| 20260906103511 | 26 | 360 | 1.6 | 4.8 | 0.00 | 0.00 | 0.00 | 62 | 1013.5 |
| 20260906103015 | 26 | 360 | 1.6 | 8.0 | 0.00 | 0.00 | 0.00 | 62 | 1013.5 |
| 20260906102512 | 26 | 360 | 3.2 | 8.0 | 0.00 | 0.00 | 0.00 | 62 | 1013.5 |
| 20260906102014 | 26 | 360 | 3.2 | 6.4 | 0.00 | 0.00 | 0.00 | 63 | 1013.5 |
| 20260906101523 | 26 | 360 | 3.2 | 6.4 | 0.00 | 0.00 | 0.00 | 63 | 1013.4 |
| 20260906101014 | 26 | 360 | 3.2 | 6.4 | 0.00 | 0.00 | 0.00 | 64 | 1013.4 |
| 20260906100516 | 25 | 360 | 1.6 | 6.4 | 0.00 | 0.00 | 0.00 | 64 | 1013.4 |
| 20260906100026 | 25 | 360 | 3.2 | 6.4 | 0.00 | 0.00 | 0.00 | 65 | 1013.4 |
| 20260906095516 | 25 | 360 | 3.2 | 6.4 | 0.00 | 0.00 | 0.00 | 65 | 1013.5 |
| 20260906095003 | 25 | 360 | 3.2 | 6.4 | 0.00 | 0.00 | 0.00 | 66 | 1013.5 |
| 20260906094517 | 25 | 360 | 1.6 | 3.2 | 0.00 | 0.00 | 0.00 | 66 | 1013.4 |
| 20260906094008 | 25 | 360 | 1.6 | 3.2 | 0.00 | 0.00 | 0.00 | 67 | 1013.5 |
| 20260906093510 | 25 | 360 | 0.0 | 1.6 | 0.00 | 0.00 | 0.00 | 67 | 1013.4 |
| 20260906093012 | 25 | 360 | 0.0 | 1.6 | 0.00 | 0.00 | 0.00 | 67 | 1013.4 |
| 20260906092513 | 25 | 360 | 0.0 | 1.6 | 0.00 | 0.00 | 0.00 | 67 | 1013.4 |
| 20260906092010 | 25 | 360 | 0.0 | 3.2 | 0.00 | 0.00 | 0.00 | 67 | 1013.5 |
| 20260906091526 | 25 | 360 | 0.0 | 3.2 | 0.00 | 0.00 | 0.00 | 68 | 1013.4 |
| 20260906091014 | 25 | 360 | 0.0 | 0.0 | 0.00 | 0.00 | 0.00 | 67 | 1013.5 |
| 20260906090516 | 25 | 360 | 0.0 | 0.0 | 0.00 | 0.00 | 0.00 | 66 | 1013.4 |
| 20260906090025 | 25 | 360 | 0.0 | 0.0 | 0.00 | 0.00 | 0.00 | 66 | 1013.4 |
| 20260906085516 | 25 | 360 | 0.0 | 0.0 | 0.00 | 0.00 | 0.00 | 66 | 1013.4 |
| 20260906085021 | 25 | 360 | 0.0 | 0.0 | 0.00 | 0.00 | 0.00 | 65 | 1013.3 |
| 20260906084529 | 25 | 360 | 0.0 | 0.0 | 0.00 | 0.00 | 0.00 | 65 | 1013.2 |
| 20260906084020 | 25 | 360 | 0.0 | 0.0 | 0.00 | 0.00 | 0.00 | 64 | 1013.3 |
| 20260906083521 | 25 | 360 | 0.0 | 0.0 | 0.00 | 0.00 | 0.00 | 64 | 1013.2 |
| 20260906083020 | 25 | 360 | 0.0 | 1.6 | 0.00 | 0.00 | 0.00 | 64 | 1013.2 |
| 20260906082509 | 25 | 360 | 0.0 | 1.6 | 0.00 | 0.00 | 0.00 | 63 | 1013.2 |
| 20260906082010 | 26 | 360 | 0.0 | 1.6 | 0.00 | 0.00 | 0.00 | 63 | 1013.2 |
| 20260906081530 | 26 | 360 | 0.0 | 0.0 | 0.00 | 0.00 | 0.00 | 63 | 1013.2 |
| 20260906081009 | 26 | 360 | 0.0 | 1.6 | 0.00 | 0.00 | 0.00 | 62 | 1013.3 |
| 20260906080512 | 26 | 360 | 0.0 | 1.6 | 0.00 | 0.00 | 0.00 | 62 | 1013.3 |
| 20260906080025 | 26 | 360 | 0.0 | 0.0 | 0.00 | 0.00 | 0.00 | 62 | 1013.3 |
| 20260906075515 | 26 | 360 | 0.0 | 0.0 | 0.00 | 0.00 | 0.00 | 61 | 1013.3 |
| 20260906075012 | 26 | 360 | 0.0 | 0.0 | 0.00 | 0.00 | 0.00 | 61 | 1013.3 |
| 20260906074527 | 26 | 360 | 0.0 | 0.0 | 0.00 | 0.00 | 0.00 | 60 | 1013.2 |
| 20260906074017 | 26 | 360 | 0.0 | 0.0 | 0.00 | 0.00 | 0.00 | 60 | 1013.2 |
| 20260906073515 | 26 | 360 | 0.0 | 1.6 | 0.00 | 0.00 | 0.00 | 60 | 1013.2 |
| 20260906073030 | 26 | 360 | 0.0 | 3.2 | 0.00 | 0.00 | 0.00 | 60 | 1013.2 |
| 20260906072518 | 26 | 360 | 0.0 | 3.2 | 0.00 | 0.00 | 0.00 | 60 | 1013.2 |
| 20260906072018 | 26 | 360 | 0.0 | 1.6 | 0.00 | 0.00 | 0.00 | 60 | 1013.3 |
| 20260906071513 | 26 | 360 | 0.0 | 0.0 | 0.00 | 0.00 | 0.00 | 59 | 1013.2 |
| 20260906071011 | 27 | 360 | 0.0 | 0.0 | 0.00 | 0.00 | 0.00 | 58 | 1013.3 |
| 20260906070513 | 27 | 360 | 0.0 | 0.0 | 0.00 | 0.00 | 0.00 | 58 | 1013.2 |
| 20260906070017 | 27 | 360 | 0.0 | 1.6 | 0.00 | 0.00 | 0.00 | 58 | 1013.2 |
| 20260906065513 | 27 | 360 | 0.0 | 1.6 | 0.00 | 0.00 | 0.00 | 57 | 1013.2 |
| 20260906065015 | 27 | 360 | 0.0 | 1.6 | 0.00 | 0.00 | 0.00 | 57 | 1013.2 |
| 20260906064533 | 27 | 360 | 0.0 | 1.6 | 0.00 | 0.00 | 0.00 | 56 | 1013.2 |
| 20260906064018 | 27 | 360 | 0.0 | 0.0 | 0.00 | 0.00 | 0.00 | 56 | 1013.2 |
| 20260906063514 | 27 | 360 | 0.0 | 3.2 | 0.00 | 0.00 | 0.00 | 55 | 1013.3 |
| 20260906063030 | 28 | 360 | 0.0 | 3.2 | 0.00 | 0.00 | 0.00 | 55 | 1013.3 |
| 20260906062519 | 28 | 360 | 0.0 | 3.2 | 0.00 | 0.00 | 0.00 | 55 | 1013.3 |
| 20260906062018 | 28 | 360 | 0.0 | 4.8 | 0.00 | 0.00 | 0.00 | 54 | 1013.3 |
| 20260906061532 | 28 | 360 | 0.0 | 4.8 | 0.00 | 0.00 | 0.00 | 54 | 1013.3 |
| 20260906061019 | 28 | 360 | 1.6 | 4.8 | 0.00 | 0.00 | 0.00 | 54 | 1013.3 |
| 20260906060516 | 28 | 360 | 0.0 | 3.2 | 0.00 | 0.00 | 0.00 | 54 | 1013.3 |
| 20260906060015 | 28 | 360 | 1.6 | 4.8 | 0.00 | 0.00 | 0.00 | 54 | 1013.3 |
| 20260906055512 | 28 | 360 | 1.6 | 4.8 | 0.00 | 0.00 | 0.00 | 53 | 1013.3 |
| 20260906055012 | 28 | 360 | 1.6 | 4.8 | 0.00 | 0.00 | 0.00 | 53 | 1013.3 |
| 20260906054523 | 28 | 360 | 0.0 | 3.2 | 0.00 | 0.00 | 0.00 | 53 | 1013.3 |
| 20260906054014 | 28 | 360 | 1.6 | 3.2 | 0.00 | 0.00 | 0.00 | 53 | 1013.3 |
| 20260906053514 | 28 | 360 | 0.0 | 3.2 | 0.00 | 0.00 | 0.00 | 52 | 1013.2 |
| 20260906053030 | 28 | 193 | 0.0 | 4.8 | 0.00 | 0.00 | 0.00 | 52 | 1013.2 |
| 20260906052514 | 28 | 360 | 1.6 | 4.8 | 0.00 | 0.00 | 0.00 | 52 | 1013.2 |
| 20260906052016 | 29 | 360 | 1.6 | 4.8 | 0.00 | 0.00 | 0.00 | 51 | 1013.2 |
| 20260906051534 | 29 | 360 | 0.0 | 8.0 | 0.00 | 0.00 | 0.00 | 51 | 1013.1 |
| 20260906051018 | 29 | 360 | 3.2 | 8.0 | 0.00 | 0.00 | 0.00 | 51 | 1013.0 |
| 20260906050517 | 29 | 360 | 3.2 | 8.0 | 0.00 | 0.00 | 0.00 | 50 | 1013.0 |
| 20260906050054 | 29 | 360 | 3.2 | 6.4 | 0.00 | 0.00 | 0.00 | 50 | 1013.0 |
| 20260906045519 | 29 | 360 | 3.2 | 6.4 | 0.00 | 0.00 | 0.00 | 50 | 1013.0 |
| 20260906045021 | 30 | 209 | 3.2 | 6.4 | 0.00 | 0.00 | 0.00 | 50 | 1013.0 |
| 20260906044503 | 30 | 360 | 3.2 | 6.4 | 0.00 | 0.00 | 0.00 | 50 | 1013.0 |
| 20260906044002 | 30 | 360 | 3.2 | 6.4 | 0.00 | 0.00 | 0.00 | 50 | 1013.0 |
| 20260906043502 | 30 | 360 | 3.2 | 4.8 | 0.00 | 0.00 | 0.00 | 50 | 1013.1 |
| 20260906043006 | 30 | 360 | 1.6 | 4.8 | 0.00 | 0.00 | 0.00 | 49 | 1013.2 |
| 20260906042501 | 30 | 209 | 1.6 | 4.8 | 0.00 | 0.00 | 0.00 | 49 | 1013.1 |
| 20260906042002 | 30 | 360 | 1.6 | 4.8 | 0.00 | 0.00 | 0.00 | 49 | 1013.2 |
| 20260906041504 | 30 | 360 | 1.6 | 6.4 | 0.00 | 0.00 | 0.00 | 48 | 1013.1 |
| 20260906041005 | 30 | 360 | 1.6 | 6.4 | 0.00 | 0.00 | 0.00 | 48 | 1013.1 |
| 20260906040507 | 30 | 360 | 1.6 | 6.4 | 0.00 | 0.00 | 0.00 | 48 | 1013.1 |
| 20260906040011 | 30 | 360 | 3.2 | 6.4 | 0.00 | 0.00 | 0.00 | 48 | 1013.1 |
| 20260906035508 | 30 | 360 | 1.6 | 6.4 | 0.00 | 0.00 | 0.00 | 48 | 1013.2 |
| 20260906035009 | 30 | 360 | 3.2 | 6.4 | 0.00 | 0.00 | 0.00 | 47 | 1013.2 |
| 20260906034515 | 30 | 360 | 1.6 | 6.4 | 0.00 | 0.00 | 0.00 | 47 | 1013.1 |
| 20260906034011 | 30 | 360 | 0.0 | 6.4 | 0.00 | 0.00 | 0.00 | 47 | 1013.1 |
| 20260906033502 | 31 | 360 | 1.6 | 6.4 | 0.00 | 0.00 | 0.00 | 47 | 1013.1 |
| 20260906033004 | 31 | 360 | 1.6 | 6.4 | 0.00 | 0.00 | 0.00 | 47 | 1013.0 |
| 20260906032503 | 31 | 360 | 1.6 | 6.4 | 0.00 | 0.00 | 0.00 | 47 | 1013.1 |
| 20260906032004 | 31 | 360 | 1.6 | 6.4 | 0.00 | 0.00 | 0.00 | 46 | 1013.1 |
| 20260906031504 | 31 | 360 | 0.0 | 6.4 | 0.00 | 0.00 | 0.00 | 46 | 1013.1 |
| 20260906031005 | 31 | 360 | 3.2 | 6.4 | 0.00 | 0.00 | 0.00 | 46 | 1013.2 |
| 20260906030505 | 31 | 360 | 1.6 | 3.2 | 0.00 | 0.00 | 0.00 | 46 | 1013.1 |
| 20260906030009 | 31 | 360 | 1.6 | 3.2 | 0.00 | 0.00 | 0.00 | 46 | 1013.1 |
| 20260906025506 | 31 | 360 | 1.6 | 3.2 | 0.00 | 0.00 | 0.00 | 46 | 1013.1 |
| 20260906025009 | 31 | 360 | 1.6 | 4.8 | 0.00 | 0.00 | 0.00 | 46 | 1013.0 |
| 20260906024512 | 31 | 360 | 1.6 | 4.8 | 0.00 | 0.00 | 0.00 | 46 | 1013.0 |
| 20260906024008 | 31 | 360 | 0.0 | 3.2 | 0.00 | 0.00 | 0.00 | 45 | 1013.0 |
| 20260906023513 | 31 | 360 | 1.6 | 3.2 | 0.00 | 0.00 | 0.00 | 45 | 1013.0 |
| 20260906023018 | 31 | 360 | 0.0 | 3.2 | 0.00 | 0.00 | 0.00 | 45 | 1012.9 |
| 20260906022512 | 31 | 360 | 0.0 | 3.2 | 0.00 | 0.00 | 0.00 | 45 | 1012.8 |
| 20260906022005 | 31 | 360 | 0.0 | 3.2 | 0.00 | 0.00 | 0.00 | 45 | 1012.8 |
| 20260906021502 | 31 | 360 | 0.0 | 1.6 | 0.00 | 0.00 | 0.00 | 45 | 1012.7 |
| 20260906021003 | 31 | 360 | 0.0 | 1.6 | 0.00 | 0.00 | 0.00 | 45 | 1012.6 |
| 20260906020506 | 31 | 360 | 0.0 | 1.6 | 0.00 | 0.00 | 0.00 | 44 | 1012.6 |
| 20260906020005 | 32 | 360 | 0.0 | 3.2 | 0.00 | 0.00 | 0.00 | 44 | 1012.6 |
| 20260906015504 | 32 | 360 | 0.0 | 3.2 | 0.00 | 0.00 | 0.00 | 44 | 1012.5 |
| 20260906015005 | 32 | 360 | 0.0 | 1.6 | 0.00 | 0.00 | 0.00 | 43 | 1012.5 |
| 20260906014510 | 32 | 360 | 0.0 | 1.6 | 0.00 | 0.00 | 0.00 | 43 | 1012.4 |
| 20260906014011 | 32 | 360 | 0.0 | 1.6 | 0.00 | 0.00 | 0.00 | 42 | 1012.3 |
| 20260906013506 | 32 | 360 | 0.0 | 3.2 | 0.00 | 0.00 | 0.00 | 42 | 1012.2 |
| 20260906013033 | 32 | 360 | 0.0 | 3.2 | 0.00 | 0.00 | 0.00 | 41 | 1012.2 |
| 20260906012513 | 33 | 360 | 0.0 | 3.2 | 0.00 | 0.00 | 0.00 | 41 | 1012.1 |
| 20260906012013 | 33 | 119 | 0.0 | 1.6 | 0.00 | 0.00 | 0.00 | 40 | 1011.9 |
| 20260906011523 | 33 | 119 | 0.0 | 3.2 | 0.00 | 0.00 | 0.00 | 40 | 1011.9 |
| 20260906011012 | 33 | 119 | 0.0 | 3.2 | 0.00 | 0.00 | 0.00 | 39 | 1011.9 |
| 20260906010507 | 33 | 119 | 0.0 | 6.4 | 0.00 | 0.00 | 0.00 | 39 | 1011.8 |
| 20260906010003 | 34 | 119 | 0.0 | 6.4 | 0.00 | 0.00 | 0.00 | 38 | 1011.8 |
| 20260906005501 | 34 | 169 | 0.0 | 6.4 | 0.00 | 0.00 | 0.00 | 38 | 1011.9 |
| 20260906005003 | 34 | 169 | 0.0 | 6.4 | 0.00 | 0.00 | 0.00 | 37 | 1011.8 |
| 20260906004508 | 35 | 169 | 1.6 | 11.3 | 0.00 | 0.00 | 0.00 | 37 | 1011.7 |
| 20260906004007 | 35 | 177 | 3.2 | 11.3 | 0.00 | 0.00 | 0.00 | 36 | 1011.7 |
| 20260906003509 | 35 | 148 | 3.2 | 9.7 | 0.00 | 0.00 | 0.00 | 36 | 1011.6 |
| 20260906003010 | 35 | 167 | 3.2 | 8.0 | 0.00 | 0.00 | 0.00 | 36 | 1011.7 |
| 20260906002508 | 35 | 133 | 1.6 | 9.7 | 0.00 | 0.00 | 0.00 | 36 | 1011.7 |
| 20260906002008 | 35 | 159 | 4.8 | 12.9 | 0.00 | 0.00 | 0.00 | 35 | 1011.8 |
| 20260906001535 | 36 | 150 | 1.6 | 12.9 | 0.00 | 0.00 | 0.00 | 35 | 1011.7 |
| 20260906001014 | 36 | 134 | 4.8 | 11.3 | 0.00 | 0.00 | 0.00 | 34 | 1011.7 |
| 20260906000514 | 36 | 131 | 4.8 | 12.9 | 0.00 | 0.00 | 0.00 | 34 | 1011.7 |
| 20260906000030 | 36 | 121 | 1.6 | 12.9 | 0.00 | 0.00 | 0.00 | 34 | 1011.6 |
| 20260905235515 | 36 | 185 | 3.2 | 12.9 | 0.00 | 0.00 | 0.00 | 34 | 1011.5 |
| 20260905235013 | 36 | 126 | 3.2 | 12.9 | 0.00 | 0.00 | 0.00 | 34 | 1011.5 |
| 20260905234504 | 36 | 121 | 3.2 | 14.5 | 0.00 | 0.00 | 0.00 | 34 | 1011.5 |
| 20260905234007 | 36 | 59 | 4.8 | 14.5 | 0.00 | 0.00 | 0.00 | 33 | 1011.4 |
| 20260905233508 | 36 | 148 | 3.2 | 9.7 | 0.00 | 0.00 | 0.00 | 33 | 1011.4 |
| 20260905233021 | 36 | 120 | 3.2 | 11.3 | 0.00 | 0.00 | 0.00 | 33 | 1011.3 |
| 20260905232514 | 36 | 125 | 3.2 | 17.7 | 0.00 | 0.00 | 0.00 | 33 | 1011.3 |
| 20260905232008 | 36 | 110 | 6.4 | 17.7 | 0.00 | 0.00 | 0.00 | 33 | 1011.3 |
| 20260905231514 | 36 | 140 | 6.4 | 14.5 | 0.00 | 0.00 | 0.00 | 33 | 1011.2 |
| 20260905231011 | 37 | 118 | 3.2 | 11.3 | 0.00 | 0.00 | 0.00 | 33 | 1011.2 |
| 20260905230509 | 36 | 81 | 3.2 | 14.5 | 0.00 | 0.00 | 0.00 | 33 | 1011.3 |
| 20260905230020 | 36 | 180 | 6.4 | 14.5 | 0.00 | 0.00 | 0.00 | 33 | 1011.3 |
| 20260905225513 | 37 | 152 | 4.8 | 12.9 | 0.00 | 0.00 | 0.00 | 33 | 1011.2 |
| 20260905225014 | 37 | 105 | 8.0 | 12.9 | 0.00 | 0.00 | 0.00 | 33 | 1011.3 |
| 20260905224525 | 36 | 154 | 6.4 | 12.9 | 0.00 | 0.00 | 0.00 | 33 | 1011.1 |
| 20260905224017 | 37 | 207 | 8.0 | 14.5 | 0.00 | 0.00 | 0.00 | 33 | 1011.2 |
| 20260905223519 | 36 | 159 | 6.4 | 16.1 | 0.00 | 0.00 | 0.00 | 33 | 1011.2 |
| 20260905223004 | 36 | 130 | 6.4 | 20.9 | 0.00 | 0.00 | 0.00 | 33 | 1011.2 |
| 20260905222506 | 36 | 153 | 6.4 | 20.9 | 0.00 | 0.00 | 0.00 | 34 | 1011.1 |
| 20260905222011 | 36 | 140 | 6.4 | 20.9 | 0.00 | 0.00 | 0.00 | 34 | 1011.2 |
| 20260905221511 | 36 | 61 | 9.7 | 20.9 | 0.00 | 0.00 | 0.00 | 34 | 1011.2 |
| 20260905221010 | 36 | 107 | 4.8 | 12.9 | 0.00 | 0.00 | 0.00 | 34 | 1011.2 |
| 20260905220509 | 36 | 156 | 4.8 | 14.5 | 0.00 | 0.00 | 0.00 | 34 | 1011.3 |
| 20260905220017 | 36 | 148 | 8.0 | 14.5 | 0.00 | 0.00 | 0.00 | 34 | 1011.4 |
| 20260905215512 | 36 | 228 | 3.2 | 12.9 | 0.00 | 0.00 | 0.00 | 34 | 1011.4 |
| 20260905215011 | 36 | 180 | 6.4 | 19.3 | 0.00 | 0.00 | 0.00 | 35 | 1011.5 |
| 20260905214523 | 36 | 139 | 8.0 | 19.3 | 0.00 | 0.00 | 0.00 | 34 | 1011.6 |
| 20260905214014 | 37 | 141 | 9.7 | 19.3 | 0.00 | 0.00 | 0.00 | 34 | 1011.6 |
| 20260905213516 | 37 | 134 | 6.4 | 16.1 | 0.00 | 0.00 | 0.00 | 34 | 1011.6 |
| 20260905213028 | 37 | 210 | 8.0 | 16.1 | 0.00 | 0.00 | 0.00 | 35 | 1011.6 |
| 20260905212516 | 37 | 197 | 6.4 | 16.1 | 0.00 | 0.00 | 0.00 | 34 | 1011.6 |
| 20260905212018 | 37 | 162 | 6.4 | 16.1 | 0.00 | 0.00 | 0.00 | 34 | 1011.7 |
| 20260905211530 | 37 | 139 | 4.8 | 16.1 | 0.00 | 0.00 | 0.00 | 35 | 1011.9 |
| 20260905211007 | 36 | 162 | 4.8 | 19.3 | 0.00 | 0.00 | 0.00 | 35 | 1011.9 |
| 20260905210510 | 36 | 167 | 12.9 | 19.3 | 0.00 | 0.00 | 0.00 | 34 | 1011.9 |
| 20260905210011 | 37 | 106 | 6.4 | 16.1 | 0.00 | 0.00 | 0.00 | 35 | 1012.0 |